Flag for U.S.A. Weather past 2 weeks in Beaumont, Texas, U.S.A.

Now
75 °F

Clear.


Feels Like: 73 °F
Forecast: 72 / 80 °F
Wind: No wind

Location: Jefferson County Airport

Current Time: Sep 18, 2014 at 3:26:41 AM

Latest Report: Sep 18, 2014 at 2:53 AM


Visibility: 10 mi

Pressure: 29.88 "Hg

Humidity: 94%

Dew point: 73 °F

Location of BeaumontLocation

Historic Weather in Beaumont — Graph

°F

Beaumont temperature yesterday

Maximum temperature yesterday: 87 °F (at 11:53 AM)
Minimum temperature yesterday: 76 °F (at 4:53 AM)
Average temperature yesterday: 78 °F

Past Weeks' High & Low Weather Summary

 TemperatureHumidityPressure
High94 °F (Sep 11, 2:53 PM)97% (Sep 6, 4:03 AM)30.17 "Hg (Sep 6, 4:03 AM)
Low66 °F (Sep 13, 11:53 PM)51% (Sep 8, 3:53 PM)29.86 "Hg (Sep 10, 4:53 PM)
Average80 °F82%30.00 "Hg
* Reported Sep 3 1:53 AM — Sep 18 1:53 AM, Beaumont, Weather by CustomWeather, © 2014

Note: Actual official high and low records may vary slightly from our data, if they occured in-between our weather recording intervals... More about our weather records

Advertising

Beaumont weather history for previous 24 hours

 ConditionsComfort  
Time TempWeatherWind HumidityBarometerVisibility
1:53 AM
Sep 18
75 °FFog.No wind94%29.88 "Hg5 mi
12:53 AM75 °FClear.No wind94%29.90 "Hg9 mi
11:53 PM
Sep 17
76 °FClear.No wind94%29.91 "Hg10 mi
10:53 PM76 °FLight rain. Passing clouds.No wind91%29.92 "Hg10 mi
9:53 PM76 °FClear.3 mph94%29.91 "Hg10 mi
8:53 PM76 °FLight rain. Clear.No wind94%29.90 "Hg10 mi
7:53 PM77 °FLight rain. Sunny.No wind90%29.90 "Hg10 mi
6:53 PM78 °FLight rain. Passing clouds.No wind90%29.90 "Hg9 mi
5:53 PM78 °FLight rain. Cloudy.3 mph90%29.91 "Hg10 mi
4:53 PM78 °FLight rain. Cloudy.No wind90%29.90 "Hg10 mi
3:53 PM78 °FLight rain. Scattered clouds.No wind90%29.92 "Hg10 mi
2:53 PM78 °FFog.7 mph90%29.90 "Hg4 mi
2:00 PM78 °FThunderstorms. Mostly cloudy.7 mph93%29.94 "Hg6 mi
12:59 PM79 °FMostly cloudy.12 mph84%29.95 "Hg10 mi
11:53 AM87 °FPassing clouds.5 mph67%29.96 "Hg10 mi
10:53 AM85 °FPartly sunny.7 mph77%29.96 "Hg10 mi
9:53 AM83 °FOvercast.5 mph82%29.96 "Hg10 mi
8:53 AM81 °FPassing clouds.3 mph85%29.96 "Hg10 mi
7:53 AM78 °FPassing clouds.5 mph93%29.96 "Hg9 mi
6:53 AM76 °FClear.3 mph94%29.95 "Hg10 mi
5:53 AM76 °FClear.No wind94%29.95 "Hg10 mi
4:53 AM76 °FLight rain. Clear.No wind94%29.94 "Hg10 mi
3:53 AM77 °FClear.No wind90%29.94 "Hg10 mi
Weather by CustomWeather, © 2014

See weather overviewHow to use our weather pages